Location: Unspecified
(48.7670°N, 0.0000°E)
Time: 08:24:32
(UTC+00:00)

Courier 1B - Pass Details

Date: 21 June 2019
Orbit: 963 x 1209 km, 28.3° (Epoch: 16 July)

Event Time Altitude Azimuth Distance (km) Brightness Sun altitude
Rises 19:22:01 0° 221° (SW) 3,899 10.8 5.3°
Reaches altitude 10° 19:26:28 10° 196° (SSW) 3,000 9.9 4.6°
Maximum altitude 19:29:44 13° 170° (S) 2,789 9.5 4.2°
Drops below altitude 10° 19:33:02 10° 143° (SE) 3,073 9.5 3.7°
Sets 19:37:43 0° 119° (ESE) 4,075 10.0 3.1°
